Location: ??????
(42.0089°N, 44.3281°E)
Time: 23:02:27
(UTC+00:00)

Cosmos 2251 Rocket - Pass Details

Date: 30 May 2022
Orbit: 764 x 791 km, 74.0° (Epoch: 03 July)

Event Time Altitude Azimuth Distance (km) Brightness Sun altitude
Rises 23:10:28 0° 337° (NNW) 3,251 7.3 -19.4°
Reaches altitude 10° 23:12:52 10° 335° (NNW) 2,324 6.4 -19.1°
Maximum altitude 23:18:05 67° 254° (WSW) 840 3.5 -18.6°
Enters shadow 23:21:02 26° 178° (S) 1,481 4.5 -18.3°
